Flag for India Weather past 2 weeks in Virudhunagar, Tamil Nadu, India

Now
86 °F

Scattered clouds.


Feels Like: 87 °F
Forecast: 65 / 90 °F
Wind: 13 mph from East

Location: Tiruchchirapalli

Current Time: Jan 31, 2015 at 3:53:12 PM

Latest Report: Jan 31, 2015 at 2:40 PM


Visibility: 4 mi

Pressure: 29.92 "Hg

Humidity: 49%

Dew point: 64 °F

Location of VirudhunagarLocation

Historic Weather in Virudhunagar — Graph

°F

Virudhunagar temperature yesterday

Maximum temperature yesterday: 86 °F (at 1:40 PM)
Minimum temperature yesterday: 72 °F (at 5:40 AM)
Average temperature yesterday: 79 °F

Past Weeks' High & Low Weather Summary

 TemperatureHumidityPressure
High90 °F (Jan 17, 2:40 PM)94% (Jan 17, 1:40 AM)30.09 "Hg (Jan 17, 1:40 AM)
Low66 °F (Jan 22, 6:40 AM)40% (Jan 19, 3:40 PM)29.80 "Hg (Jan 28, 3:40 PM)
Average78 °F71%29.95 "Hg
* Reported Jan 16 1:40 PM — Jan 31 1:40 PM, Virudhunagar, Weather by CustomWeather, © 2014

Note: Actual official high and low records may vary slightly from our data, if they occured in-between our weather recording intervals... More about our weather records

Advertising

Virudhunagar weather history for previous 24 hours

 ConditionsComfort  
Time TempWeatherWind HumidityBarometerVisibility
1:40 PM
Jan 31
86 °FScattered clouds.9 mph52%29.95 "Hg3 mi
12:40 PM86 °FScattered clouds.12 mph52%29.98 "Hg3 mi
11:40 AM84 °FScattered clouds.10 mph55%30.01 "Hg3 mi
9:40 AM79 °FHaze.12 mph70%30.04 "Hg2 mi
8:40 AM75 °FFog.9 mph78%30.04 "Hg1 mi
7:40 AM72 °FFog.7 mph88%30.01 "Hg1 mi
6:40 AM72 °FFog.3 mph88%29.98 "Hg1 mi
5:40 AM72 °FFog.6 mph88%29.95 "Hg1 mi
4:40 AM72 °FFog.7 mph88%29.92 "Hg2 mi
3:40 AM72 °FFog.6 mph88%29.92 "Hg2 mi
2:40 AM73 °FFog.8 mph83%29.95 "Hg2 mi
1:40 AM73 °FFog.7 mph83%29.95 "Hg2 mi
12:40 AM73 °FFog.5 mph89%29.98 "Hg2 mi
11:40 PM
Jan 30
75 °FFog.5 mph83%29.98 "Hg2 mi
10:40 PM75 °FFog.5 mph83%30.01 "Hg2 mi
9:40 PM77 °FFog.7 mph79%30.01 "Hg3 mi
8:40 PM79 °FHaze.9 mph74%29.98 "Hg3 mi
7:40 PM79 °FHaze.9 mph70%29.95 "Hg3 mi
6:40 PM81 °FHaze.7 mph66%29.92 "Hg3 mi
5:40 PM82 °FHaze.10 mph62%29.92 "Hg3 mi
4:40 PM86 °FHaze.12 mph55%29.89 "Hg3 mi
3:40 PM84 °FScattered clouds.7 mph58%29.92 "Hg3 mi
Weather by CustomWeather, © 2014

See weather overviewHow to use our weather pages